« Back
NWS Peachtree City, Ga » Text Product » GA Regional Weather Roundup


Printer-friendly Version
Current Version              Previous Versions:   1  2  3  4  5  6  7  8  9  

Regional Weather Roundup

933
ASUS42 KFFC 011703
RWRGA
WEATHER ROUNDUP FOR GEORGIA
NATIONAL WEATHER SERVICE PEACHTREE CITY GA
100 PM EDT FRI JUL 01 2016

NOTE: "FAIR" INDICATES FEW OR NO CLOUDS BELOW 12,000 FEET WITH NO
SIGNIFICANT WEATHER AND/OR OBSTRUCTIONS TO VISIBILITY.

* = USE WITH CAUTION. THE STATIONS MARKED WITH AN ASTERISK MAY NOT
REPORT WEATHER SUCH AS PRECIPITATION, FOG, OR THUNDER AND ARE NOT
QUALITY CONTROLLED BY NWS.

THE REMARK "TC" DENOTES TEMPERATURE READING IN DEGREES CELSIUS.

GAZ001>058-011800-
NORTH GEORGIA

CITY           SKY/WX    TMP DP  RH WIND       PRES   REMARKS
ATLANTA        MOSUNNY   88  63  43 VRB6      30.03F
ATHENS         SUNNY     87  72  60 VRB3      30.02F HX  93
CHAMBLEE       SUNNY     91  53  27 NW9       30.03F
PEACHTREE CITY SUNNY     88  63  43 NW8       30.04F
ROME           SUNNY     91  56  30 VRB5G22   30.01F
WEST ATLANTA   SUNNY     88  56  33 W7        30.03S
GAINESVILLE    SUNNY     84  67  56 VRB7      30.06F
CARTERSVILLE   SUNNY     89  51  27 N6        30.03F


CITY           SKY/WX    TMP DP  RH WIND       PRES   REMARKS
DALTON*        CLOUDY    88  59  37 NW12      30.03R
LAWRENCEVILLE* MOSUNNY   88  66  48 W9G18     30.04F HX  90
MARIETTA       MOSUNNY   89  53  29 NW7       30.04S
KENNESAW*      SUNNY     88  54  31 W7        29.98F
CANTON*        SUNNY     90  36  14 W3        30.05S
$$

GAZ059>098-102>109-011800-
CENTRAL GEORGIA

CITY           SKY/WX    TMP DP  RH WIND       PRES   REMARKS
AUGUSTA-BUSH   MOSUNNY   87  71  58 VRB3      30.01F HX  93
AUGUSTA-DANIEL PTSUNNY   87  69  54 N3        30.03F HX  91
COLUMBUS       MOSUNNY   85  70  60 SW8       30.02F
MACON          MOSUNNY   88  70  55 SW8       30.02F HX  93
ROBINS AFB     MOSUNNY   87  72  59 VRB1      30.02F HX  93


CITY           SKY/WX    TMP DP  RH WIND       PRES   REMARKS
LAGRANGE*      MOSUNNY   90  70  51 W10       30.04S HX  96
SYLVANIA*      MOSUNNY   89  74  60 NW8       30.04F HX  97
MILLEDGEVILLE* MOSUNNY   88  75  66 CALM      30.03F HX  97
$$

GAZ099>101-110>166-011800-
SOUTH GEORGIA

CITY           SKY/WX    TMP DP  RH WIND       PRES   REMARKS
SAVANNAH       PTSUNNY   88  73  61 W8        30.03F HX  95
VALDOSTA       LGT RAIN  74  73  97 CALM      30.06F
ALMA           PTSUNNY   87  72  60 W9        30.03F HX  93
ST SIMONS      MOSUNNY   88  74  63 W6        30.02F HX  96
FT STEWART     MOSUNNY   87  74  64 SW7       30.00F HX  95
ALBANY         PTSUNNY   87  71  58 NW9       30.04F HX  93
HUNTER AFB     MOSUNNY   87  78  72 W9        30.00F HX 100
MOODY AFB      LGT RAIN  75  71  89 S7        30.05F
BRUNSWICK      PTSUNNY   88  79  74 W7        30.03F HX 102


CITY           SKY/WX    TMP DP  RH WIND       PRES   REMARKS
BAINBRIDGE*    PTSUNNY   90  75  62 CALM      30.03F HX 100
MOULTRIE*      LGT RAIN  77  73  88 S5        30.06F
VIDALIA*       CLOUDY    86  72  62 NW6       30.04F HX  92
WAYCROSS*      MOSUNNY   91  77  63 W6        30.02F HX 103
DOUGLAS*       MOSUNNY   88  70  55 W7        30.05F HX  92
$$




USA.gov is the U.S. government's official web portal to all federal, state and local government web resources and services.